| time (UTC) | temp F | wind direction | speed knots | gust knots | rain 1hr in | rain 24hr in | rain mn in | humidity % | barometer mb |
| 20260502170243 | 66 | 115 | 0.0 | 2.6 | 0.00 | 0.29 | 0.29 | 93 | 1011.3 |
| 20260502164231 | 66 | 305 | 0.0 | 2.6 | 0.05 | 0.29 | 0.29 | 92 | 1011.5 |
| 20260502163726 | 66 | 0 | 1.7 | 6.1 | 0.05 | 0.29 | 0.29 | 92 | 1011.4 |
| 20260502163223 | 67 | 59 | 1.7 | 6.1 | 0.02 | 0.29 | 0.29 | 92 | 1011.6 |
| 20260502162720 | 67 | 9 | 2.6 | 4.3 | 0.00 | 0.28 | 0.28 | 92 | 1011.1 |
| 20260502162217 | 68 | 125 | 1.7 | 2.6 | 0.07 | 0.28 | 0.28 | 92 | 1010.9 |
| 20260502161714 | 68 | 327 | 1.7 | 2.6 | 0.12 | 0.28 | 0.28 | 92 | 1011.4 |
| 20260502161210 | 67 | 65 | 1.7 | 4.3 | 0.12 | 0.27 | 0.27 | 92 | 1010.8 |
| 20260502160709 | 68 | 326 | 1.7 | 1.7 | 0.07 | 0.26 | 0.26 | 92 | 1011.2 |
| 20260502160208 | 68 | 95 | 1.7 | 3.5 | 0.00 | 0.25 | 0.25 | 92 | 1010.9 |
| 20260502152121 | 66 | 80 | 1.7 | 2.6 | 0.05 | 0.25 | 0.25 | 91 | 1011.4 |
| 20260502151618 | 65 | 90 | 1.7 | 1.7 | 0.05 | 0.25 | 0.25 | 91 | 1011.6 |
| 20260502151115 | 65 | 109 | 0.9 | 1.7 | 0.05 | 0.24 | 0.24 | 91 | 1012.2 |
| 20260502150613 | 65 | 90 | 0.0 | 1.7 | 0.07 | 0.24 | 0.24 | 91 | 1011.8 |
| 20260502150109 | 65 | 54 | 0.0 | 0.0 | 0.14 | 0.24 | 0.24 | 90 | 1011.9 |
| 20260502130457 | 68 | 90 | 0.0 | 0.0 | 0.00 | 0.00 | 0.00 | 83 | 1011.8 |
| 20260502123440 | 67 | 81 | 0.0 | 0.9 | 0.00 | 0.00 | 0.00 | 82 | 1011.7 |
| 20260502122937 | 67 | 8 | 0.0 | 0.0 | 0.00 | 0.00 | 0.00 | 82 | 1012.0 |
| 20260502122433 | 67 | 90 | 0.0 | 0.9 | 0.00 | 0.00 | 0.00 | 82 | 1011.7 |
| 20260502121932 | 67 | 8 | 0.0 | 0.0 | 0.00 | 0.00 | 0.00 | 82 | 1011.7 |
| 20260502121428 | 66 | 114 | 0.0 | 0.0 | 0.00 | 0.00 | 0.00 | 82 | 1011.8 |
| 20260502120926 | 66 | 114 | 0.0 | 0.9 | 0.00 | 0.00 | 0.00 | 82 | 1011.5 |
| 20260502120422 | 67 | 97 | 0.9 | 0.9 | 0.00 | 0.00 | 0.00 | 82 | 1011.4 |
| 20260502115919 | 66 | 165 | 0.0 | 0.0 | 0.00 | 0.00 | 0.00 | 82 | 1011.3 |
| 20260502115416 | 66 | 57 | 1.7 | 1.7 | 0.00 | 0.00 | 0.00 | 82 | 1011.4 |
| 20260502114912 | 66 | 90 | 0.0 | 0.9 | 0.00 | 0.00 | 0.00 | 82 | 1011.5 |
| 20260502114409 | 66 | 66 | 0.0 | 1.7 | 0.00 | 0.00 | 0.00 | 82 | 1011.7 |
| 20260502113907 | 66 | 294 | 0.0 | 2.6 | 0.00 | 0.00 | 0.00 | 82 | 1011.7 |
| 20260502113404 | 66 | 77 | 0.0 | 0.9 | 0.00 | 0.00 | 0.00 | 83 | 1011.8 |
| 20260502112903 | 66 | 45 | 1.7 | 2.6 | 0.00 | 0.00 | 0.00 | 83 | 1011.5 |
| 20260502112400 | 66 | 90 | 0.0 | 0.9 | 0.00 | 0.00 | 0.00 | 84 | 1011.8 |
| 20260502111857 | 66 | 354 | 0.0 | 2.6 | 0.00 | 0.00 | 0.00 | 84 | 1011.9 |
| 20260502111354 | 66 | 23 | 0.0 | 1.7 | 0.00 | 0.00 | 0.00 | 85 | 1011.6 |
| 20260502110851 | 66 | 0 | 0.9 | 1.7 | 0.00 | 0.00 | 0.00 | 85 | 1011.6 |
| 20260502110349 | 66 | 331 | 0.9 | 0.9 | 0.00 | 0.00 | 0.00 | 86 | 1011.5 |
| 20260502105846 | 66 | 270 | 0.0 | 0.0 | 0.00 | 0.00 | 0.00 | 86 | 1011.4 |
| 20260502105343 | 66 | 81 | 0.0 | 0.0 | 0.00 | 0.00 | 0.00 | 86 | 1011.4 |
| 20260502104841 | 66 | 54 | 0.0 | 0.0 | 0.00 | 0.00 | 0.00 | 86 | 1011.3 |
| 20260502104338 | 66 | 54 | 0.0 | 0.0 | 0.00 | 0.00 | 0.00 | 86 | 1011.1 |
| 20260502103835 | 66 | 29 | 0.0 | 0.9 | 0.00 | 0.00 | 0.00 | 86 | 1010.9 |
| 20260502103333 | 66 | 90 | 0.0 | 0.0 | 0.00 | 0.00 | 0.00 | 86 | 1010.7 |
| 20260502102830 | 66 | 90 | 0.0 | 0.0 | 0.00 | 0.00 | 0.00 | 86 | 1010.8 |
| 20260502102326 | 66 | 81 | 0.0 | 1.7 | 0.00 | 0.00 | 0.00 | 86 | 1011.1 |
| 20260502101824 | 66 | 49 | 0.0 | 1.7 | 0.00 | 0.00 | 0.00 | 86 | 1010.7 |
| 20260502101322 | 66 | 90 | 0.0 | 1.7 | 0.00 | 0.00 | 0.00 | 86 | 1010.6 |
| 20260502100820 | 66 | 77 | 0.9 | 0.9 | 0.00 | 0.00 | 0.00 | 86 | 1010.4 |
| 20260502100319 | 66 | 99 | 0.0 | 1.7 | 0.00 | 0.00 | 0.00 | 86 | 1010.5 |
| 20260502091253 | 67 | 106 | 0.0 | 1.7 | 0.00 | 0.00 | 0.00 | 84 | 1010.1 |
| 20260502090750 | 67 | 77 | 0.0 | 2.6 | 0.00 | 0.00 | 0.00 | 84 | 1009.9 |
| 20260502090247 | 66 | 60 | 0.0 | 1.7 | 0.00 | 0.00 | 0.00 | 84 | 1010.4 |
| 20260502071147 | 68 | 90 | 0.0 | 0.0 | 0.00 | 0.00 | 0.00 | 84 | 1012.5 |
| 20260502070646 | 68 | 36 | 0.0 | 1.7 | 0.00 | 0.00 | 0.00 | 84 | 1012.6 |
| 20260502070143 | 68 | 74 | 0.0 | 1.7 | 0.00 | 0.00 | 0.00 | 84 | 1012.6 |
| 20260502065641 | 68 | 66 | 0.0 | 0.0 | 0.00 | 0.00 | 0.00 | 84 | 1012.4 |
| 20260502065138 | 68 | 74 | 0.0 | 0.9 | 0.00 | 0.00 | 0.00 | 85 | 1012.3 |
| 20260502064637 | 68 | 112 | 0.0 | 0.0 | 0.00 | 0.00 | 0.00 | 85 | 1012.1 |
| 20260502064134 | 68 | 112 | 0.0 | 0.0 | 0.00 | 0.00 | 0.00 | 85 | 1012.3 |
| 20260502063632 | 68 | 112 | 0.0 | 0.0 | 0.00 | 0.00 | 0.00 | 84 | 1012.2 |
| 20260502063129 | 68 | 90 | 0.0 | 0.9 | 0.00 | 0.00 | 0.00 | 84 | 1012.3 |
| 20260502062626 | 68 | 140 | 0.0 | 0.0 | 0.00 | 0.00 | 0.00 | 84 | 1012.7 |
| 20260502062124 | 68 | 126 | 0.0 | 0.9 | 0.00 | 0.00 | 0.00 | 84 | 1012.3 |
| 20260502061622 | 68 | 103 | 0.0 | 0.9 | 0.00 | 0.00 | 0.00 | 84 | 1012.7 |
| 20260502061119 | 68 | 99 | 0.0 | 0.0 | 0.00 | 0.00 | 0.00 | 84 | 1012.8 |
| 20260502060619 | 68 | 180 | 0.0 | 0.0 | 0.00 | 0.00 | 0.00 | 84 | 1013.2 |
| 20260502060116 | 68 | 180 | 0.0 | 0.0 | 0.00 | 0.00 | 0.00 | 84 | 1013.3 |
| 20260502055614 | 68 | 180 | 0.0 | 0.0 | 0.00 | 0.00 | 0.00 | 84 | 1013.2 |
| 20260502055112 | 68 | 180 | 0.0 | 0.0 | 0.00 | 0.00 | 0.00 | 83 | 1013.0 |
| 20260502054611 | 68 | 180 | 0.0 | 0.9 | 0.00 | 0.00 | 0.00 | 83 | 1013.0 |
| 20260502054107 | 68 | 151 | 0.0 | 0.0 | 0.00 | 0.00 | 0.00 | 83 | 1013.4 |
| 20260502053604 | 68 | 151 | 0.0 | 0.0 | 0.00 | 0.00 | 0.00 | 83 | 1013.1 |
| 20260502053102 | 68 | 151 | 0.0 | 0.9 | 0.00 | 0.00 | 0.00 | 83 | 1013.1 |
| 20260502052600 | 68 | 151 | 0.0 | 0.0 | 0.00 | 0.00 | 0.00 | 82 | 1013.3 |
| 20260502052058 | 68 | 151 | 0.0 | 0.0 | 0.00 | 0.00 | 0.00 | 82 | 1013.0 |
| 20260502051556 | 69 | 157 | 0.0 | 0.0 | 0.00 | 0.00 | 0.00 | 82 | 1013.0 |
| 20260502051053 | 69 | 157 | 0.0 | 0.0 | 0.00 | 0.00 | 0.00 | 82 | 1013.2 |
| 20260502050549 | 69 | 157 | 0.0 | 0.9 | 0.00 | 0.00 | 0.00 | 81 | 1013.2 |
| 20260502050046 | 69 | 90 | 0.0 | 0.0 | 0.00 | 0.00 | 0.00 | 81 | 1013.3 |
| 20260502045543 | 69 | 114 | 0.0 | 0.9 | 0.00 | 0.00 | 0.00 | 80 | 1013.3 |
| 20260502045040 | 70 | 99 | 0.0 | 1.7 | 0.00 | 0.00 | 0.00 | 80 | 1013.1 |
| 20260502044536 | 70 | 97 | 0.0 | 1.7 | 0.00 | 0.00 | 0.00 | 80 | 1013.1 |
| 20260502044033 | 70 | 106 | 0.0 | 0.9 | 0.00 | 0.00 | 0.00 | 79 | 1013.2 |
| 20260502043531 | 71 | 81 | 0.0 | 0.0 | 0.00 | 0.00 | 0.00 | 79 | 1013.4 |
| 20260502043027 | 70 | 90 | 0.0 | 0.0 | 0.00 | 0.00 | 0.00 | 79 | 1013.3 |
| 20260502042522 | 71 | 82 | 0.0 | 0.9 | 0.00 | 0.00 | 0.00 | 79 | 1013.4 |
| 20260502042020 | 71 | 114 | 0.0 | 0.0 | 0.00 | 0.00 | 0.00 | 79 | 1013.5 |
| 20260502041518 | 71 | 114 | 0.0 | 0.9 | 0.00 | 0.00 | 0.00 | 79 | 1013.4 |
| 20260502041014 | 71 | 352 | 0.0 | 0.0 | 0.00 | 0.00 | 0.00 | 79 | 1013.2 |
| 20260502040511 | 71 | 352 | 0.0 | 0.0 | 0.00 | 0.00 | 0.00 | 78 | 1013.6 |
| 20260502040008 | 71 | 352 | 0.0 | 0.0 | 0.00 | 0.02 | 0.02 | 78 | 1013.5 |
| 20260502035503 | 70 | 74 | 0.0 | 0.9 | 0.00 | 0.02 | 0.02 | 78 | 1013.6 |
| 20260502035001 | 70 | 74 | 0.0 | 0.0 | 0.00 | 0.02 | 0.02 | 78 | 1013.4 |
| 20260502034459 | 71 | 74 | 0.0 | 0.0 | 0.00 | 0.02 | 0.02 | 78 | 1013.6 |
| 20260502033958 | 71 | 74 | 0.0 | 0.0 | 0.00 | 0.02 | 0.02 | 78 | 1013.4 |
| 20260502033455 | 71 | 74 | 0.0 | 0.9 | 0.00 | 0.02 | 0.02 | 78 | 1013.2 |
| 20260502032951 | 71 | 106 | 0.0 | 0.9 | 0.00 | 0.02 | 0.02 | 78 | 1013.5 |
| 20260502032448 | 71 | 74 | 0.0 | 0.0 | 0.00 | 0.02 | 0.02 | 78 | 1013.4 |
| 20260502031945 | 71 | 74 | 0.0 | 0.0 | 0.00 | 0.02 | 0.02 | 78 | 1013.4 |
| 20260502031443 | 71 | 109 | 0.0 | 0.0 | 0.00 | 0.02 | 0.02 | 78 | 1013.0 |
| 20260502030941 | 71 | 74 | 0.0 | 0.9 | 0.00 | 0.02 | 0.02 | 78 | 1013.1 |
| 20260502030439 | 71 | 114 | 0.0 | 0.0 | 0.00 | 0.02 | 0.02 | 77 | 1013.4 |
| 20260502025937 | 71 | 114 | 0.9 | 0.9 | 0.00 | 0.02 | 0.02 | 77 | 1012.9 |
| 20260502025433 | 71 | 54 | 0.0 | 2.6 | 0.00 | 0.02 | 0.02 | 77 | 1013.1 |
| 20260502024931 | 71 | 111 | 0.0 | 1.7 | 0.00 | 0.02 | 0.02 | 77 | 1013.4 |
| 20260502024430 | 71 | 106 | 0.0 | 0.0 | 0.00 | 0.02 | 0.02 | 76 | 1013.5 |
| 20260502023928 | 71 | 165 | 0.0 | 0.9 | 0.00 | 0.02 | 0.02 | 76 | 1013.7 |
| 20260502023425 | 71 | 90 | 0.0 | 0.0 | 0.00 | 0.02 | 0.02 | 76 | 1013.6 |
| 20260502022922 | 71 | 90 | 0.0 | 1.7 | 0.00 | 0.02 | 0.02 | 76 | 1013.8 |
| 20260502022418 | 71 | 90 | 0.0 | 1.7 | 0.00 | 0.02 | 0.02 | 75 | 1013.8 |
| 20260502021915 | 71 | 69 | 0.0 | 1.7 | 0.00 | 0.02 | 0.02 | 75 | 1013.4 |
| 20260502021413 | 71 | 90 | 0.0 | 1.7 | 0.00 | 0.02 | 0.02 | 75 | 1013.8 |
| 20260502020910 | 71 | 105 | 0.0 | 1.7 | 0.00 | 0.02 | 0.02 | 75 | 1013.8 |
| 20260502020408 | 71 | 69 | 0.0 | 0.9 | 0.00 | 0.02 | 0.02 | 74 | 1014.2 |
| 20260502015904 | 71 | 60 | 0.0 | 1.7 | 0.00 | 0.02 | 0.02 | 74 | 1013.9 |
| 20260502015401 | 71 | 114 | 0.0 | 0.9 | 0.00 | 0.02 | 0.02 | 75 | 1013.9 |
| 20260502014858 | 71 | 99 | 0.0 | 0.9 | 0.00 | 0.02 | 0.02 | 75 | 1013.8 |
| 20260502014355 | 71 | 346 | 0.0 | 1.7 | 0.00 | 0.02 | 0.02 | 75 | 1013.3 |
| 20260502013851 | 71 | 180 | 0.9 | 1.7 | 0.00 | 0.02 | 0.02 | 76 | 1012.3 |
| 20260502013347 | 71 | 77 | 3.5 | 3.5 | 0.00 | 0.02 | 0.02 | 75 | 1011.9 |
| 20260502012844 | 71 | 16 | 0.0 | 2.6 | 0.00 | 0.02 | 0.02 | 76 | 1013.2 |
| 20260502012342 | 71 | 71 | 0.0 | 1.7 | 0.00 | 0.02 | 0.02 | 79 | 1013.4 |
| 20260502011839 | 71 | 123 | 0.0 | 5.2 | 0.00 | 0.02 | 0.02 | 81 | 1013.0 |
| 20260502011335 | 71 | 53 | 1.7 | 2.6 | 0.00 | 0.02 | 0.02 | 83 | 1012.6 |
| 20260502010832 | 72 | 83 | 0.9 | 2.6 | 0.00 | 0.02 | 0.02 | 84 | 1013.1 |
| 20260502010329 | 72 | 55 | 1.7 | 4.3 | 0.00 | 0.02 | 0.02 | 84 | 1013.1 |
| 20260502005825 | 73 | 106 | 0.9 | 3.5 | 0.00 | 0.02 | 0.02 | 84 | 1013.2 |
| 20260502005324 | 72 | 63 | 2.6 | 4.3 | 0.00 | 0.02 | 0.02 | 84 | 1013.1 |
| 20260502004821 | 73 | 75 | 0.9 | 2.6 | 0.00 | 0.02 | 0.02 | 84 | 1013.2 |
| 20260502004316 | 73 | 81 | 0.0 | 3.5 | 0.00 | 0.02 | 0.02 | 84 | 1012.8 |
| 20260502003815 | 73 | 90 | 0.0 | 2.6 | 0.00 | 0.02 | 0.02 | 83 | 1013.1 |
| 20260502003311 | 74 | 90 | 0.9 | 3.5 | 0.00 | 0.02 | 0.02 | 83 | 1013.0 |
| 20260502002807 | 73 | 80 | 1.7 | 3.5 | 0.00 | 0.02 | 0.02 | 82 | 1013.0 |
| 20260502002306 | 74 | 86 | 1.7 | 3.5 | 0.00 | 0.02 | 0.02 | 81 | 1012.9 |
| 20260502001802 | 74 | 101 | 1.7 | 4.3 | 0.00 | 0.02 | 0.02 | 80 | 1012.8 |
| 20260502001300 | 75 | 85 | 1.7 | 2.6 | 0.00 | 0.02 | 0.02 | 79 | 1012.6 |
| 20260502000757 | 74 | 0 | 0.0 | 4.3 | 0.00 | 0.02 | 0.02 | 78 | 1012.5 |
| 20260502000255 | 74 | 77 | 3.5 | 3.5 | 0.00 | 0.02 | 0.02 | 78 | 1012.5 |
| 20260501235750 | 75 | 73 | 2.6 | 2.6 | 0.00 | 0.02 | 0.02 | 78 | 1012.2 |
| 20260501235246 | 75 | 69 | 0.9 | 4.3 | 0.00 | 0.02 | 0.02 | 78 | 1011.8 |
| 20260501234742 | 76 | 90 | 0.0 | 2.6 | 0.00 | 0.02 | 0.02 | 79 | 1012.0 |
| 20260501234239 | 76 | 90 | 0.9 | 2.6 | 0.00 | 0.02 | 0.02 | 78 | 1011.8 |
| 20260501233738 | 76 | 90 | 0.9 | 2.6 | 0.00 | 0.02 | 0.02 | 77 | 1011.8 |
| 20260501233235 | 76 | 90 | 0.9 | 2.6 | 0.00 | 0.02 | 0.02 | 76 | 1011.7 |
| 20260501232730 | 76 | 120 | 0.9 | 2.6 | 0.00 | 0.02 | 0.02 | 75 | 1011.7 |
| 20260501232227 | 76 | 109 | 0.9 | 2.6 | 0.00 | 0.02 | 0.02 | 75 | 1011.7 |
| 20260501231725 | 76 | 90 | 1.7 | 4.3 | 0.00 | 0.02 | 0.02 | 75 | 1011.9 |
| 20260501231223 | 76 | 90 | 0.0 | 2.6 | 0.00 | 0.02 | 0.02 | 75 | 1012.0 |
| 20260501230721 | 76 | 68 | 2.6 | 2.6 | 0.00 | 0.02 | 0.02 | 76 | 1011.8 |
| 20260501230220 | 76 | 83 | 2.6 | 2.6 | 0.00 | 0.02 | 0.02 | 76 | 1011.4 |
| 20260501225717 | 77 | 98 | 0.9 | 2.6 | 0.00 | 0.02 | 0.02 | 77 | 1011.4 |
| 20260501225214 | 76 | 77 | 0.0 | 4.3 | 0.00 | 0.02 | 0.02 | 78 | 1011.5 |
| 20260501224709 | 77 | 90 | 0.9 | 1.7 | 0.00 | 0.02 | 0.02 | 79 | 1011.2 |
| 20260501224208 | 77 | 83 | 0.9 | 2.6 | 0.00 | 0.02 | 0.02 | 80 | 1011.1 |
| 20260501223703 | 77 | 90 | 1.7 | 4.3 | 0.00 | 0.02 | 0.02 | 81 | 1011.5 |
| 20260501223200 | 77 | 106 | 1.7 | 3.5 | 0.00 | 0.02 | 0.02 | 81 | 1011.5 |
| 20260501222656 | 77 | 81 | 2.6 | 4.3 | 0.00 | 0.02 | 0.02 | 81 | 1011.4 |
| 20260501222153 | 78 | 106 | 1.7 | 4.3 | 0.00 | 0.02 | 0.02 | 80 | 1011.1 |
| 20260501221650 | 77 | 90 | 2.6 | 3.5 | 0.00 | 0.02 | 0.02 | 78 | 1011.1 |
| 20260501221148 | 78 | 79 | 2.6 | 3.5 | 0.00 | 0.02 | 0.02 | 78 | 1011.2 |
| 20260501220645 | 80 | 71 | 0.0 | 2.6 | 0.00 | 0.02 | 0.02 | 76 | 1011.0 |
| 20260501220142 | 81 | 70 | 1.7 | 1.7 | 0.02 | 0.02 | 0.02 | 74 | 1011.1 |
| 20260501215639 | 82 | 84 | 1.7 | 1.7 | 0.09 | 0.02 | 0.02 | 72 | 1010.9 |
| 20260501215134 | 82 | 77 | 1.7 | 2.6 | 0.07 | 0.01 | 0.01 | 65 | 1011.0 |
| 20260501214629 | 84 | 21 | 1.7 | 2.6 | 0.00 | 0.00 | 0.00 | 57 | 1010.9 |
| 20260501214124 | 84 | 6 | 0.0 | 2.6 | 0.00 | 0.00 | 0.00 | 57 | 1010.7 |
| 20260501213622 | 84 | 20 | 0.9 | 4.3 | 0.00 | 0.00 | 0.00 | 57 | 1010.8 |
| 20260501213118 | 85 | 29 | 1.7 | 2.6 | 0.00 | 0.00 | 0.00 | 56 | 1010.9 |
| 20260501212615 | 85 | 61 | 2.6 | 5.2 | 0.00 | 0.00 | 0.00 | 57 | 1011.0 |
| 20260501212111 | 85 | 53 | 3.5 | 5.2 | 0.00 | 0.00 | 0.00 | 56 | 1010.9 |
| 20260501211608 | 86 | 29 | 0.0 | 4.3 | 0.00 | 0.00 | 0.00 | 56 | 1010.6 |
| 20260501211106 | 85 | 285 | 0.0 | 2.6 | 0.00 | 0.00 | 0.00 | 55 | 1010.5 |
| 20260501210602 | 85 | 49 | 3.5 | 3.5 | 0.00 | 0.00 | 0.00 | 56 | 1010.5 |
| 20260501210059 | 85 | 345 | 1.7 | 4.3 | 0.00 | 0.00 | 0.00 | 56 | 1010.9 |
| 20260501205555 | 85 | 36 | 1.7 | 4.3 | 0.00 | 0.00 | 0.00 | 56 | 1010.8 |
| 20260501205053 | 87 | 319 | 1.7 | 5.2 | 0.00 | 0.00 | 0.00 | 53 | 1010.8 |
| 20260501204549 | 88 | 270 | 0.0 | 4.3 | 0.00 | 0.00 | 0.00 | 52 | 1010.6 |
| 20260501204045 | 87 | 336 | 1.7 | 4.3 | 0.00 | 0.00 | 0.00 | 53 | 1010.6 |
| 20260501203542 | 87 | 345 | 1.7 | 5.2 | 0.00 | 0.00 | 0.00 | 53 | 1010.8 |
| 20260501203040 | 87 | 99 | 0.0 | 4.3 | 0.00 | 0.00 | 0.00 | 54 | 1010.8 |
| 20260501202537 | 86 | 74 | 0.9 | 3.5 | 0.00 | 0.00 | 0.00 | 55 | 1010.9 |
| 20260501202033 | 87 | 39 | 2.6 | 4.3 | 0.00 | 0.00 | 0.00 | 52 | 1010.8 |
| 20260501201531 | 88 | 86 | 2.6 | 2.6 | 0.00 | 0.00 | 0.00 | 54 | 1010.7 |
| 20260501201027 | 86 | 12 | 1.7 | 6.1 | 0.00 | 0.00 | 0.00 | 55 | 1011.2 |
| 20260501200524 | 86 | 59 | 1.7 | 3.5 | 0.00 | 0.00 | 0.00 | 55 | 1011.2 |
| 20260501200021 | 86 | 21 | 1.7 | 3.5 | 0.00 | 0.00 | 0.00 | 54 | 1011.3 |
| 20260501195518 | 87 | 85 | 0.0 | 3.5 | 0.00 | 0.00 | 0.00 | 55 | 1011.3 |
| 20260501195014 | 85 | 8 | 1.7 | 2.6 | 0.00 | 0.00 | 0.00 | 56 | 1011.5 |
| 20260501194510 | 84 | 78 | 2.6 | 7.0 | 0.00 | 0.00 | 0.00 | 57 | 1011.6 |
| 20260501194005 | 85 | 299 | 1.7 | 4.3 | 0.00 | 0.00 | 0.00 | 56 | 1011.8 |
| 20260501193504 | 84 | 320 | 3.5 | 5.2 | 0.00 | 0.00 | 0.00 | 56 | 1011.7 |
| 20260501193001 | 85 | 14 | 0.9 | 6.1 | 0.00 | 0.00 | 0.00 | 56 | 1011.9 |
| 20260501192458 | 87 | 11 | 0.0 | 4.3 | 0.00 | 0.00 | 0.00 | 54 | 1012.1 |
| 20260501191955 | 85 | 40 | 2.6 | 4.3 | 0.00 | 0.00 | 0.00 | 56 | 1012.2 |
| 20260501191453 | 85 | 11 | 2.6 | 5.2 | 0.00 | 0.00 | 0.00 | 56 | 1012.4 |
| 20260501190950 | 86 | 263 | 3.5 | 5.2 | 0.00 | 0.00 | 0.00 | 55 | 1012.3 |
| 20260501190445 | 84 | 294 | 0.0 | 4.3 | 0.00 | 0.00 | 0.00 | 57 | 1012.3 |
| 20260501185941 | 85 | 75 | 1.7 | 7.0 | 0.00 | 0.00 | 0.00 | 56 | 1012.3 |
| 20260501185437 | 85 | 331 | 4.3 | 4.3 | 0.00 | 0.00 | 0.00 | 56 | 1012.3 |
| 20260501184933 | 84 | 23 | 1.7 | 6.1 | 0.00 | 0.00 | 0.00 | 57 | 1012.4 |
| 20260501184430 | 84 | 54 | 0.9 | 4.3 | 0.00 | 0.00 | 0.00 | 58 | 1012.3 |
| 20260501183924 | 83 | 16 | 0.0 | 2.6 | 0.00 | 0.00 | 0.00 | 59 | 1012.6 |
| 20260501183422 | 82 | 79 | 0.0 | 4.3 | 0.00 | 0.00 | 0.00 | 61 | 1012.8 |
| 20260501182918 | 82 | 277 | 0.0 | 3.5 | 0.00 | 0.00 | 0.00 | 61 | 1012.8 |
| 20260501182415 | 82 | 36 | 1.7 | 5.2 | 0.00 | 0.00 | 0.00 | 60 | 1013.0 |
| 20260501181912 | 83 | 283 | 0.9 | 4.3 | 0.00 | 0.00 | 0.00 | 61 | 1012.6 |
| 20260501181409 | 83 | 0 | 0.9 | 4.3 | 0.00 | 0.00 | 0.00 | 60 | 1012.6 |
| 20260501180906 | 83 | 75 | 0.0 | 4.3 | 0.00 | 0.00 | 0.00 | 59 | 1012.8 |
| 20260501180403 | 83 | 10 | 1.7 | 6.1 | 0.00 | 0.00 | 0.00 | 59 | 1012.7 |
| 20260501175900 | 84 | 15 | 3.5 | 5.2 | 0.00 | 0.00 | 0.00 | 59 | 1013.0 |
| 20260501175356 | 81 | 83 | 2.6 | 3.5 | 0.00 | 0.00 | 0.00 | 62 | 1012.9 |
| 20260501174853 | 81 | 287 | 1.7 | 3.5 | 0.00 | 0.00 | 0.00 | 61 | 1012.7 |
| 20260501174350 | 82 | 0 | 1.7 | 5.2 | 0.00 | 0.00 | 0.00 | 61 | 1012.9 |
| 20260501173848 | 82 | 59 | 3.5 | 6.1 | 0.00 | 0.00 | 0.00 | 62 | 1012.8 |
| 20260501173346 | 82 | 35 | 0.9 | 2.6 | 0.00 | 0.00 | 0.00 | 62 | 1012.8 |